Simultaneous Nadir Overpasses (SNOs) Predictions

Prediction of SNOs between LANDSAT-8 and METOP-A Satellite Orbit:

Table of predicted SNOs for the next 14.0 days since TLE Epoch: 5/17/2014
Index Date (LANDSAT-8) Time (LANDSAT-8) Lat,Lon (LANDSAT-8) SZA (LANDSAT-8 ) Date (METOP-A) Time (METOP-A) Lat,Lon (METOP-A) SZA (METOP-A ) Distance(km) Time Diff (sec)
1 05/17/2014 04:07:06 81.00, 155.52 63.70 05/17/2014 04:05:56 81.00, 155.35 63.66 2.84 70
2 05/17/2014 04:56:31 -81.05, -36.18 116.21 05/17/2014 04:56:33 -81.05, -36.02 116.19 2.76 2
3 05/19/2014 23:41:17 81.02,-137.81 63.12 05/19/2014 23:40:17 81.01,-137.92 63.08 1.84 60
4 05/20/2014 00:30:43 -81.04, 30.15 116.84 05/20/2014 00:30:56 -81.03, 29.98 116.85 3.08 13
5 05/22/2014 19:15:29 81.02, -71.27 62.57 05/22/2014 19:14:39 81.02, -71.24 62.55 0.57 50
6 05/22/2014 20:04:55 -81.05, 96.70 117.39 05/22/2014 20:05:18 -81.04, 96.65 117.39 0.89 23
7 05/25/2014 14:49:41 81.02, -4.86 62.04 05/25/2014 14:49:02 81.02, -5.00 62.00 2.46 39
8 05/25/2014 15:39:07 -81.05, 163.12 117.92 05/25/2014 15:39:40 -81.05, 163.28 117.89 2.78 33
9 05/28/2014 10:23:53 81.01, 61.42 61.53 05/28/2014 10:23:24 81.02, 61.56 61.54 2.67 29




NCC Satellite Simultaneous Nadir Overpasses (SNOs) Prediction Service
